TimeEDT,TemperatureF,Dew PointF,Humidity,Sea Level PressureIn,VisibilityMPH,Wind Direction,Wind SpeedMPH,Gust SpeedMPH,PrecipitationIn,Events,Conditions,WindDirDegrees,DateUTC
12:15 AM,51.8,35.6,54,29.98,10.0,West,3.5,-,N/A,,Clear,280,2013-10-19 04:15:00
12:35 AM,51.8,35.6,54,29.98,10.0,West,3.5,-,N/A,,Clear,280,2013-10-19 04:35:00
12:55 AM,48.2,35.6,62,29.98,10.0,Calm,Calm,-,N/A,,Clear,0,2013-10-19 04:55:00
1:15 AM,44.6,35.6,71,29.99,10.0,Calm,Calm,-,N/A,,Clear,0,2013-10-19 05:15:00
1:35 AM,44.6,33.8,66,29.99,10.0,SSE,3.5,-,N/A,,Clear,150,2013-10-19 05:35:00
1:55 AM,46.4,35.6,66,29.99,10.0,SSE,3.5,-,N/A,,Clear,160,2013-10-19 05:55:00
2:15 AM,46.4,35.6,66,29.98,10.0,Calm,Calm,-,N/A,,Clear,0,2013-10-19 06:15:00
2:35 AM,44.6,35.6,71,29.99,10.0,Calm,Calm,-,N/A,,Clear,0,2013-10-19 06:35:00
2:55 AM,42.8,33.8,70,29.98,10.0,Calm,Calm,-,N/A,,Clear,0,2013-10-19 06:55:00
3:15 AM,44.6,35.6,71,29.98,10.0,Calm,Calm,-,N/A,,Clear,0,2013-10-19 07:15:00
3:35 AM,42.8,35.6,76,29.98,10.0,Calm,Calm,-,N/A,,Clear,0,2013-10-19 07:35:00
3:55 AM,42.8,35.6,76,29.98,10.0,Calm,Calm,-,N/A,,Clear,0,2013-10-19 07:55:00
4:15 AM,44.6,35.6,71,29.99,10.0,Calm,Calm,-,N/A,,Clear,0,2013-10-19 08:15:00
4:35 AM,41.0,33.8,76,29.99,10.0,Calm,Calm,-,N/A,,Clear,0,2013-10-19 08:35:00
4:55 AM,42.8,35.6,76,29.99,10.0,Calm,Calm,-,N/A,,Clear,0,2013-10-19 08:55:00
5:15 AM,39.2,33.8,81,29.99,10.0,Calm,Calm,-,N/A,,Clear,0,2013-10-19 09:15:00
5:35 AM,39.2,33.8,81,29.99,10.0,Calm,Calm,-,N/A,,Clear,0,2013-10-19 09:35:00
5:45 AM,39.2,33.8,81,30.00,10.0,Calm,Calm,-,N/A,,Clear,0,2013-10-19 09:45:00
7:50 AM,41.0,35.6,81,29.99,10.0,Calm,Calm,-,N/A,,Clear,0,2013-10-19 11:50:00
8:45 AM,48.2,41.0,76,30.00,10.0,Calm,Calm,-,N/A,,Clear,0,2013-10-19 12:45:00
9:45 AM,55.4,41.0,58,30.00,10.0,Calm,Calm,-,N/A,,Clear,0,2013-10-19 13:45:00
10:45 AM,59.0,41.0,51,29.97,10.0,Variable,3.5,-,N/A,,Clear,0,2013-10-19 14:45:00
11:52 AM,60.8,39.2,45,29.96,10.0,SW,9.2,-,N/A,,Clear,230,2013-10-19 15:52:00
12:55 PM,60.8,39.2,45,29.93,10.0,SW,6.9,17.3,N/A,,Clear,220,2013-10-19 16:55:00
1:55 PM,60.8,39.2,45,29.91,10.0,SW,9.2,-,N/A,,Clear,220,2013-10-19 17:55:00
2:47 PM,60.8,41.0,48,29.90,10.0,SSW,12.7,17.3,N/A,,Scattered Clouds,200,2013-10-19 18:47:00
3:45 PM,59.0,42.8,55,29.88,10.0,SW,5.8,-,N/A,,Mostly Cloudy,220,2013-10-19 19:45:00
4:45 PM,59.0,41.0,51,29.84,10.0,South,5.8,-,N/A,,Overcast,170,2013-10-19 20:45:00
5:45 PM,57.2,41.0,55,29.82,10.0,SSE,6.9,-,N/A,,Overcast,160,2013-10-19 21:45:00
6:45 PM,57.2,41.0,55,29.85,10.0,South,3.5,-,N/A,,Overcast,190,2013-10-19 22:45:00
7:45 PM,55.4,44.6,67,29.82,10.0,South,5.8,-,N/A,,Overcast,180,2013-10-19 23:45:00
8:55 PM,55.4,44.6,67,29.81,10.0,South,6.9,-,N/A,,Mostly Cloudy,170,2013-10-20 00:55:00
9:15 PM,55.4,44.6,67,29.81,10.0,South,5.8,-,N/A,,Mostly Cloudy,190,2013-10-20 01:15:00
9:35 PM,55.4,44.6,67,29.80,10.0,South,6.9,-,N/A,,Overcast,190,2013-10-20 01:35:00
9:55 PM,55.4,46.4,72,29.80,10.0,South,5.8,-,N/A,,Overcast,190,2013-10-20 01:55:00
10:15 PM,55.4,46.4,72,29.80,10.0,South,6.9,-,N/A,,Overcast,190,2013-10-20 02:15:00
10:35 PM,55.4,46.4,72,29.79,10.0,South,6.9,-,N/A,,Overcast,190,2013-10-20 02:35:00
10:55 PM,55.4,46.4,72,29.78,10.0,South,5.8,-,N/A,,Overcast,190,2013-10-20 02:55:00
11:15 PM,55.4,48.2,77,29.78,10.0,SSW,4.6,-,N/A,,Overcast,200,2013-10-20 03:15:00
11:35 PM,55.4,48.2,77,29.77,10.0,SSW,5.8,-,N/A,,Overcast,200,2013-10-20 03:35:00
11:55 PM,53.6,48.2,82,29.76,8.0,SSW,3.5,-,N/A,,Overcast,210,2013-10-20 03:55:00